Location: Unspecified
(43.3830°N, 0.0000°E)
Time: 17:54:33
(UTC+00:00)

Vanguard 2 - Pass Details

Date: 24 June 2019
Orbit: 553 x 2938 km, 32.9° (Epoch: 14 July)

Event Time Altitude Azimuth Distance (km) Brightness Sun altitude
Rises 12:41:27 0° 265° (W) 4,168 11.4 68.5°
Reaches altitude 10° 12:44:27 10° 252° (WSW) 3,514 11.3 68.2°
Maximum altitude 12:51:53 27° 200° (SSW) 3,114 11.5 67.6°
Drops below altitude 10° 13:02:25 10° 151° (SSE) 5,085 12.0 66.5°
Sets 13:07:58 0° 141° (SE) 6,416 12.3 65.9°
